Regional Weather Roundup
Issued by NWS

Home | Current Version | Previous Version | Graphics & Text | Print | Product List | Glossary On
Versions: 1 2 3 4 5 6 7 8 9 10 11 12 13 14 15 16 17 18 19 20 21 22 23 24 25 26 27 28 29 30 31 32 33 34 35 36 37 38 39 40 41 42 43 44 45 46 47 48 49 50
000
ASUS43 KLOT 050000
RWRIL

ILLINOIS REGIONAL WEATHER ROUNDUP
NATIONAL WEATHER SERVICE CHICAGO/ROMEOVILLE IL
700 PM CDT TUE AUG 04 2015

NOTE: "FAIR" INDICATES FEW OR NO CLOUDS BELOW 12,000 FEET WITH NO
SIGNIFICANT WEATHER AND/OR OBSTRUCTIONS TO VISIBILITY.

* THESE STATIONS ARE NOT UNDER NWS QUALITY CONTROL. THEY ALSO MAY NOT
  REPORT WEATHER SUCH AS PRECIPITATION OR FOG.

ILZ001-002-007-009-015-016-024-050100-
NORTHWEST ILLINOIS

CITY           SKY/WX    TMP DP  RH WIND       PRES   REMARKS
MOLINE         MOSUNNY   77  63  61 SW6       29.97R
6HR MIN TEMP:  77; 6HR MAX TEMP:  82;

STERLING*      SUNNY     79  59  50 W6        29.93S HX  80
$$

ILZ003-004-008-010-011-017-018-050100-
NORTH CENTRAL ILLINOIS

CITY           SKY/WX    TMP DP  RH WIND       PRES   REMARKS
ROCKFORD       PTSUNNY   76  53  44 N8        29.97S
6HR MIN TEMP:  76; 6HR MAX TEMP:  82;

$$

ILZ005-006-012>014-019>023-050100-
NORTHEAST ILLINOIS

CITY           SKY/WX    TMP DP  RH WIND       PRES   REMARKS
CHICAGO-OHARE  PTSUNNY   77  53  43 N13       29.94S
6HR MIN TEMP:  77; 6HR MAX TEMP:  82;

CHICAGO-MIDWAY PTSUNNY   79  55  43 E9        29.93F
6HR MIN TEMP:  79; 6HR MAX TEMP:  84;

AURORA         SUNNY     75  58  55 NW5       29.96S
6HR MIN TEMP:  75; 6HR MAX TEMP:  81;

WAUKEGAN       PTSUNNY   71  57  61 E7        29.95S
6HR MIN TEMP:  71; 6HR MAX TEMP:  79;

DUPAGE AIRPORT MOSUNNY   75  52  44 NW7       29.94F
6HR MIN TEMP:  75; 6HR MAX TEMP:  81;

WHEELING       MOSUNNY   76  52  43 N7        29.96S
6HR MIN TEMP:  76; 6HR MAX TEMP:  82;

NORTHERLY ISL    N/A     74  59  59 NE7         N/A
$$

LMZ740>746-050100-
SOUTHERN LAKE MICHIGAN

STATION/POSITION SKY/WX   TEMP    WIND        PRES    VSBY  WAVE
                          AIR SEA DIR/SP/G                  HT/PER
                          (F)     (DEG/KT/KT) (MB)    (MI)  (FT/S)
HARRISON CRIB              74      40/  7/ 10   N/A
BURNHAM HARBOR             75      70/  6/  9   N/A
CALUMET HARBOR             75      40/  6/  8   N/A
BURNS HARBOR               77      60/  6/  8 1014.6F
MICHIGAN CITY              75      20/  3/  4   N/A
MICHIGAN CITY 6N           76 76   70/  4/  6   N/A           1
ST. JOSEPH                 74 74  330/  2/  2   N/A           1
$$

ILZ025>027-034>036-040-047-049-050-058-095>099-050100-
WEST-CENTRAL ILLINOIS

CITY           SKY/WX    TMP DP  RH WIND       PRES   REMARKS
QUINCY         PTSUNNY   76  63  64 E5        29.98R
MACOMB*        MOSUNNY   75  62  63 CALM      30.00R
$$

ILZ028>032-037-038-041>044-048-051>054-059>061-050100-
CENTRAL ILLINOIS

CITY           SKY/WX    TMP DP  RH WIND       PRES   REMARKS
DECATUR        CLOUDY    78  61  55 SE3       29.98S HX  80
PEORIA         MOSUNNY   79  62  56 CALM      29.97S HX  80
6HR MIN TEMP:  79; 6HR MAX TEMP:  84;

SPRINGFIELD    PTSUNNY   78  60  53 CALM      29.97S
6HR MIN TEMP:  77; 6HR MAX TEMP:  82; 6HR PCP: TRACE;

TAYLORVILLE    NOT AVBL
$$

ILZ033-039-045-046-055>057-062-063-050100-
EAST-CENTRAL ILLINOIS

CITY           SKY/WX    TMP DP  RH WIND       PRES   REMARKS
CHAMPAIGN      PTSUNNY   77  64  64 MISG      29.99R
MATTOON        PTSUNNY   75  65  70 CALM      29.98R
$$

ILZ079-100>102-050100-
SOUTHWEST ILLINOIS

CITY           SKY/WX    TMP DP  RH WIND       PRES   REMARKS
ALTON          PTSUNNY   79  72  78 NE6       29.96R HX  82
CAHOKIA*       CLOUDY    83  71  67 E3        29.94S HX  87
$$

ILZ064>066-069>071-074>076-080>082-084>086-088>090-092>094-050100-
SOUTH-CENTRAL ILLINOIS

CITY           SKY/WX    TMP DP  RH WIND       PRES   REMARKS
CARBONDALE     CLOUDY    79  71  76 SE5       29.95R HX  82
6HR MIN TEMP:  79; 6HR MAX TEMP:  91;

MT. VERNON     CLOUDY    73  66  78 E3        29.98R
SALEM*         CLOUDY    82  69  65 E3        29.97S HX  85
$$

ILZ067-068-072-073-078-083-087-091-050100-
SOUTHEAST ILLINOIS

CITY           SKY/WX    TMP DP  RH WIND       PRES   REMARKS
LAWRENCEVILLE  CLOUDY    77  68  73 S8        30.00R
HARRISBURG*    CLOUDY    75  67  75 E7        30.00R
ROBINSON*      CLOUDY    76  68  77 S3        30.01R
CARMI*         CLOUDY    69  64  83 CALM      29.96F
$$

ABBREVIATIONS USED IN REMARKS
   TC - TEMPERATURE IN CELSIUS
  WCI - WIND CHILL INDEX
   HX - HEAT INDEX
  VSB - VISIBILITY
$$




USA.gov is the U.S. government's official web portal to all federal, state and local government web resources and services.